Wind_Speed
47 44 55 55 49 43 40 38 36 40 44 33 37 37 44 48 50 57 56 60 59 43 42 40 42 45 42 49 54 58 57 61 62 58 53 52 52 53 56 58 57 55 52 54
54 50 61 61 58 51 51 47 51 46 48 46 42 38 51 51 51 50 52 57 55 57 53 55 56 59 50 50 58 58 56 65 68 69 67 59 57 56 59 61 62 62 62 61
62 60 65 63 61 60 58 59 58 57 51 50 49 33 54 59 62 62 60 61 60 60 63 64 67 69 67 66 71 71 69 62 67 72 72 68 67 65 66 67 69 70 68 66
57 55 62 63 56 63 61 68 65 57 62 57 56 39 52 60 68 74 72 74 73 71 67 67 67 68 71 73 75 81 81 76 74 72 76 72 72 73 73 76 78 76 75 75
59 60 62 62 69 69 62 71 67 66 61 65 61 62 56 61 68 72 76 79 75 72 79 76 75 76 77 80 82 82 80 78 81 81 76 77 76 78 76 74 73 73 75 74
67 68 68 69 70 72 79 78 73 68 70 64 70 73 61 68 74 81 79 86 80 85 82 86 88 88 85 77 78 84 83 78 79 86 82 79 82 77 80 84 81 80 80 80
78 76 77 75 76 82 83 81 84 81 78 77 80 81 77 78 79 83 86 88 91 90 89 95 92 92 95 87 85 80 83 81 76 76 74 82 80 80 76 83 88 88 89 86
81 83 84 82 85 85 85 87 87 84 85 83 86 88 86 89 90 93 89 90 97 100 98 97 98 96 87 89 93 91 94 90 84 84 87 87 90 92 91 94 94 90 91 94
82 89 91 91 91 92 93 94 92 91 90 93 92 94 90 96 103 98 95 95 95 96 103 97 88 96 95 99 103 101 103 106 102 100 98 92 90 103 101 100 102 96 95 103
84 89 90 93 94 95 94 95 97 100 101 99 94 91 100 99 108 106 102 104 106 109 105 105 105 97 105 112 118 119 120 121 114 112 116 113 110 107 107 113 106 108 104 110
91 92 95 94 95 97 98 100 106 109 107 112 110 108 111 104 106 105 106 109 103 102 102 104 114 119 120 130 129 128 127 129 122 119 120 123 120 119 126 124 124 124 120 125
100 101 100 103 105 105 103 102 110 119 121 124 127 110 111 108 112 114 112 112 111 115 118 120 127 130 136 132 122 120 125 123 120 111 109 107 112 109 119 117 113 112 113 115
104 102 100 102 108 110 113 116 124 127 126 126 131 121 113 118 120 117 118 118 117 121 131 134 139 142 140 129 124 117 114 112 107 101 96 93 90 90 93 92 94 91 95 98
111 114 114 115 123 123 121 120 124 128 127 127 128 133 120 118 125 126 125 127 136 139 139 136 127 124 120 109 104 102 103 99 92 87 85 82 81 78 78 79 82 86 83 87
116 118 119 121 122 122 121 120 121 122 130 134 126 129 127 127 134 140 146 145 139 129 121 116 112 109 102 92 89 86 87 84 78 80 81 78 79 75 75 79 80 80 76 82
123 122 123 124 121 122 120 113 122 132 134 137 137 144 146 149 145 141 135 134 124 120 112 104 98 90 82 76 72 72 77 72 68 73 74 76 77 77 76 77 78 81 80 80
125 126 129 122 135 136 131 140 143 148 150 151 157 158 154 148 140 132 129 121 109 104 96 88 83 74 66 65 63 64 69 66 62 63 68 69 68 71 77 79 77 79 80 77
136 141 143 140 148 149 147 150 154 156 153 153 152 148 141 136 123 116 119 100 95 90 80 75 68 65 60 58 57 57 61 60 57 57 56 61 65 67 71 69 71 75 72 73
143 148 151 150 153 155 147 152 154 154 144 143 133 127 120 110 102 99 92 86 84 78 73 67 61 56 55 56 54 55 53 55 49 46 48 50 58 64 66 66 67 70 72 72
147 153 153 159 156 151 145 148 147 139 132 129 115 110 101 97 87 83 75 72 70 65 64 61 56 53 52 52 51 45 47 48 48 45 47 50 53 58 62 64 68 71 70 71
152 153 153 153 154 149 138 136 126 118 114 108 97 91 84 80 75 70 65 65 61 59 58 56 51 49 46 47 43 44 45 46 49 48 48 49 53 56 60 64 67 67 69 71
146 148 149 145 133 129 127 117 103 94 92 86 85 82 77 72 65 60 61 57 58 56 54 52 47 44 44 44 40 39 43 45 46 49 50 53 52 48 50 53 57 58 61 63
130 131 130 128 122 116 102 95 87 86 83 84 77 73 70 65 59 55 55 54 54 54 47 45 42 36 35 37 37 37 38 40 42 46 50 51 50 48 50 50 48 50 55 59
123 121 110 103 104 100 98 90 85 76 74 73 70 64 60 58 56 53 52 50 53 51 36 29 28 32 34 33 33 34 34 36 40 45 45 44 41 42 45 45 47 50 53 56
110 101 96 88 90 84 80 79 72 67 65 64 64 56 53 50 53 51 53 48 51 46 35 31 28 31 33 35 36 36 37 37 41 41 37 40 39 38 40 41 43 46 49 52
90 85 81 77 74 69 72 70 63 60 59 57 56 51 47 45 44 45 50 49 47 46 35 33 32 36 37 38 39 40 39 37 39 37 33 36 36 34 36 40 41 41 43 44
Wind_Direction
260 247 265 265 263 262 274 275 278 276 283 299 289 286 290 287 296 283 279 286 280 281 281 278 272 281 281 281 275 275 276 277 282 277 272 274 275 278 279 274 271 267 260 255
260 260 261 270 271 268 274 279 286 282 283 282 290 301 294 289 293 295 286 283 278 276 276 277 278 281 277 275 273 271 275 276 276 280 280 269 266 269 272 272 270 268 266 264
266 267 263 265 274 278 278 283 283 276 286 287 282 294 280 288 283 287 290 286 286 280 281 283 282 280 280 276 282 284 281 273 270 270 274 276 272 270 270 273 274 272 269 268
265 267 265 266 271 277 276 279 281 282 276 287 286 285 277 277 281 284 288 292 290 287 281 285 288 287 282 280 275 275 280 279 274 267 268 272 276 273 272 271 272 271 270 269
262 265 265 264 270 279 282 279 284 274 276 276 280 278 265 272 276 283 281 283 294 292 290 290 293 291 289 285 284 279 276 277 275 275 268 266 269 269 269 267 269 270 271 270
264 268 268 268 268 273 283 281 282 274 272 276 273 276 281 273 284 287 283 282 285 287 289 287 289 292 291 286 280 277 274 278 275 273 270 270 267 267 267 264 263 262 264 266
262 267 270 271 272 276 279 282 279 279 279 281 277 274 276 277 279 280 282 283 282 287 287 286 288 288 290 296 295 289 282 277 279 273 273 269 270 271 266 266 262 258 262 266
263 264 267 272 274 277 279 280 284 276 277 277 275 279 276 283 282 289 277 277 282 285 286 288 288 287 291 293 293 290 293 286 277 276 274 272 270 264 264 266 266 262 263 258
264 266 267 270 274 275 279 283 282 278 280 276 276 279 281 285 288 288 279 279 280 282 285 289 286 291 289 291 290 287 285 285 281 279 274 271 270 263 255 260 261 257 258 258
264 265 268 275 275 276 280 278 278 278 279 277 278 280 290 284 286 286 283 283 285 287 291 292 290 286 285 287 288 286 284 285 279 277 273 268 264 263 265 259 259 256 253 256
265 270 275 277 277 278 276 276 277 279 280 284 286 286 291 290 285 287 288 290 291 288 288 287 286 288 288 289 289 286 283 279 273 271 270 268 266 265 264 265 260 262 260 260
276 280 282 280 280 277 275 275 278 283 283 285 287 291 295 292 290 291 289 291 289 289 287 285 286 288 288 288 282 278 275 276 278 275 272 270 268 262 264 267 267 266 264 261
277 279 278 276 277 278 281 281 284 286 288 290 289 295 290 295 294 289 287 287 287 288 292 292 292 290 288 287 284 282 279 276 275 273 271 266 259 257 258 258 259 257 258 258
277 278 279 279 280 281 283 285 285 285 287 286 291 290 293 290 291 291 290 289 293 295 294 292 290 283 280 281 280 277 276 275 276 273 270 267 267 263 258 256 256 255 255 255
275 275 279 279 280 280 283 285 284 285 286 288 290 286 288 292 292 292 294 296 295 298 293 289 282 282 282 280 275 272 270 270 269 268 269 268 266 265 263 261 262 261 256 253
277 278 279 279 280 279 280 280 278 281 284 284 286 289 290 293 296 296 296 295 295 294 287 283 284 283 281 277 272 270 266 266 261 261 264 263 263 262 260 260 260 260 259 256
276 274 275 275 278 278 280 281 282 282 283 286 288 291 294 295 297 298 296 294 290 287 286 285 284 280 279 274 270 267 265 266 264 257 258 260 258 257 256 257 257 257 257 260
275 276 277 277 278 280 281 282 282 282 284 287 290 293 292 295 295 294 292 290 288 285 286 284 281 280 279 275 269 266 266 268 265 265 260 255 254 254 253 252 252 255 258 259
271 274 279 282 282 282 283 284 284 286 288 290 294 293 293 291 289 290 287 286 285 287 285 283 281 280 276 272 268 268 270 269 268 267 266 260 254 254 254 253 253 255 255 255
276 276 278 279 281 283 284 284 285 289 293 293 291 290 290 291 288 288 285 284 283 284 282 281 280 276 273 273 269 270 268 268 269 264 258 257 257 255 252 252 251 252 250 252
277 277 278 280 282 285 287 288 291 292 291 290 288 287 288 287 287 287 285 283 282 280 278 277 277 276 273 270 267 264 264 266 267 267 264 260 256 255 254 253 252 252 252 251
277 279 280 281 284 288 288 290 290 289 289 291 289 288 287 287 287 285 282 280 278 276 275 277 277 276 274 273 269 261 257 260 264 266 267 264 264 263 259 257 258 257 256 256
277 278 281 285 287 289 289 289 289 288 288 286 285 285 286 285 283 280 277 275 273 272 274 280 284 276 276 269 265 268 265 263 263 261 260 262 264 265 264 260 257 254 255 256
279 282 285 285 287 287 286 287 286 285 286 285 283 283 284 283 280 275 271 270 270 274 275 261 255 259 267 269 266 263 263 265 264 260 261 266 264 261 260 259 257 255 255 256
279 282 283 285 280 280 282 281 283 283 282 282 282 282 279 280 280 275 272 270 271 273 269 258 250 254 258 263 265 266 264 261 261 264 267 266 263 260 259 259 257 256 256 257
279 280 279 279 280 281 279 280 281 283 281 279 279 278 274 273 273 272 271 273 273 276 270 263 257 259 256 260 261 264 267 266 267 270 271 269 265 260 258 257 256 256 257 258
Height
10677 10682 10672 10673 10677 10680 10678 10679 10680 10676 10675 10679 10680 10681 10675 10669 10668 10666 10666 10664 10666 10667 10665 10664 10663 10667 10667 10669 10666 10661 10659 10656 10652 10653 10656 10657 10658 10658 10655 10654 10655 10656 10655 10653
10663 10670 10656 10659 10662 10666 10666 10665 10666 10667 10664 10664 10667 10671 10662 10655 10654 10651 10650 10649 10653 10653 10654 10653 10651 10650 10654 10652 10650 10646 10647 10646 10641 10636 10636 10644 10643 10643 10640 10637 10636 10638 10640 10642
10647 10652 10648 10646 10646 10648 10649 10651 10651 10653 10651 10647 10652 10664 10649 10642 10636 10633 10631 10633 10638 10640 10639 10637 10637 10637 10639 10641 10637 10634 10631 10633 10625 10622 10619 10617 10623 10630 10630 10624 10620 10619 10622 10624
10639 10635 10630 10633 10638 10630 10637 10628 10634 10636 10637 10636 10632 10648 10634 10630 10620 10613 10615 10614 10615 10615 10618 10618 10618 10616 10615 10616 10620 10618 10613 10614 10610 10610 10606 10602 10599 10606 10610 10608 10603 10602 10604 10607
10624 10621 10615 10619 10618 10613 10622 10615 10610 10614 10618 10618 10618 10616 10619 10617 10611 10610 10600 10596 10593 10595 10596 10596 10596 10596 10595 10593 10591 10595 10595 10593 10588 10587 10592 10591 10587 10584 10587 10588 10584 10582 10582 10586
10606 10600 10602 10605 10602 10599 10595 10595 10592 10593 10595 10603 10596 10589 10617 10597 10596 10595 10587 10582 10576 10575 10574 10571 10571 10573 10572 10569 10567 10565 10568 10570 10571 10569 10569 10567 10569 10570 10569 10565 10565 10563 10561 10563
10586 10586 10582 10584 10587 10577 10575 10572 10567 10571 10572 10578 10579 10569 10582 10581 10579 10578 10571 10565 10561 10556 10553 10550 10549 10546 10541 10535 10539 10541 10541 10542 10543 10546 10546 10545 10547 10546 10543 10539 10539 10540 10536 10536
10568 10565 10564 10566 10566 10557 10553 10549 10546 10546 10546 10551 10550 10553 10553 10553 10551 10550 10544 10543 10538 10533 10531 10527 10523 10517 10511 10508 10505 10507 10511 10516 10516 10516 10516 10516 10517 10510 10510 10511 10506 10510 10513 10510
10553 10543 10544 10545 10540 10536 10535 10526 10522 10520 10522 10524 10531 10529 10531 10530 10519 10518 10514 10510 10510 10509 10504 10497 10489 10484 10478 10482 10484 10480 10481 10485 10488 10490 10487 10489 10495 10482 10482 10477 10476 10476 10484 10477
10532 10521 10524 10523 10515 10516 10509 10502 10496 10493 10490 10495 10506 10511 10509 10504 10493 10485 10481 10478 10471 10469 10465 10462 10463 10462 10455 10450 10449 10451 10448 10449 10453 10459 10456 10459 10456 10455 10451 10450 10449 10447 10448 10447
10509 10507 10503 10498 10492 10488 10484 10479 10471 10462 10461 10460 10469 10486 10487 10479 10468 10460 10452 10443 10436 10434 10433 10435 10433 10433 10429 10418 10415 10404 10399 10396 10403 10408 10411 10411 10416 10426 10421 10415 10415 10419 10419 10415
10482 10485 10486 10477 10464 10460 10459 10455 10446 10440 10441 10430 10421 10460 10446 10440 10432 10427 10427 10423 10416 10409 10401 10395 10392 10392 10385 10375 10370 10368 10354 10350 10351 10363 10365 10371 10372 10382 10371 10371 10375 10379 10378 10379
10458 10460 10461 10456 10444 10439 10439 10434 10418 10405 10398 10401 10375 10412 10423 10410 10399 10399 10396 10400 10393 10384 10376 10363 10352 10344 10336 10326 10312 10310 10310 10309 10317 10321 10324 10329 10336 10336 10337 10340 10342 10344 10344 10346
10432 10430 10430 10431 10416 10415 10416 10409 10393 10378 10373 10359 10367 10352 10394 10384 10370 10363 10362 10358 10362 10357 10345 10332 10314 10297 10294 10295 10282 10276 10268 10271 10273 10278 10285 10291 10291 10297 10303 10306 10310 10314 10315 10316
10403 10400 10401 10400 10385 10384 10389 10392 10376 10357 10340 10322 10353 10333 10338 10343 10338 10335 10326 10317 10312 10311 10297 10284 10271 10268 10262 10255 10248 10246 10238 10243 10246 10248 10250 10255 10260 10265 10270 10274 10278 10280 10286 10289
10377 10373 10371 10374 10361 10358 10369 10372 10348 10331 10323 10311 10314 10309 10312 10309 10296 10294 10290 10276 10273 10263 10249 10239 10234 10233 10229 10223 10220 10218 10211 10219 10227 10225 10225 10230 10236 10240 10243 10247 10251 10253 10256 10258
10345 10341 10339 10356 10333 10330 10347 10332 10320 10304 10293 10290 10285 10277 10280 10274 10260 10256 10239 10232 10230 10218 10212 10206 10206 10203 10201 10195 10193 10193 10188 10194 10201 10206 10207 10210 10215 10219 10219 10221 10223 10227 10230 10232
10319 10307 10309 10325 10305 10306 10314 10300 10284 10273 10269 10272 10253 10250 10244 10239 10235 10222 10202 10207 10195 10186 10186 10180 10181 10176 10175 10174 10173 10173 10171 10175 10181 10186 10188 10190 10192 10195 10197 10199 10201 10203 10206 10208
10284 10278 10272 10279 10273 10269 10287 10260 10246 10237 10247 10233 10229 10224 10210 10201 10201 10192 10183 10179 10166 10162 10157 10157 10158 10158 10156 10154 10153 10152 10156 10157 10163 10168 10171 10171 10172 10172 10174 10177 10178 10181 10184 10187
10255 10249 10245 10242 10236 10234 10248 10223 10215 10211 10211 10207 10197 10186 10181 10171 10169 10163 10159 10151 10146 10143 10138 10135 10138 10141 10141 10138 10138 10139 10138 10138 10141 10148 10150 10151 10152 10153 10154 10155 10158 10160 10163 10166
10230 10219 10217 10212 10199 10200 10205 10185 10189 10183 10180 10171 10164 10154 10152 10145 10142 10139 10134 10127 10126 10123 10120 10120 10124 10123 10124 10125 10127 10125 10124 10124 10124 10127 10131 10133 10134 10135 10136 10136 10138 10142 10144 10147
10205 10189 10183 10177 10175 10171 10163 10163 10157 10155 10145 10142 10135 10125 10121 10119 10120 10117 10110 10111 10106 10106 10105 10104 10108 10109 10109 10108 10110 10114 10113 10111 10110 10112 10113 10114 10116 10121 10122 10125 10127 10129 10129 10130
10183 10166 10160 10150 10147 10139 10135 10130 10131 10125 10121 10111 10111 10104 10101 10100 10102 10099 10094 10093 10092 10090 10092 10090 10094 10093 10093 10094 10095 10096 10098 10099 10099 10099 10098 10101 10103 10103 10106 10106 10109 10111 10111 10112
10152 10138 10135 10128 10128 10119 10108 10103 10099 10100 10099 10092 10086 10086 10085 10083 10084 10083 10080 10080 10075 10075 10080 10082 10083 10081 10081 10081 10084 10085 10087 10088 10086 10084 10083 10084 10088 10089 10088 10090 10091 10092 10094 10095
10119 10116 10114 10115 10102 10090 10090 10083 10085 10082 10076 10072 10067 10069 10068 10067 10066 10067 10062 10065 10060 10062 10065 10067 10069 10069 10068 10069 10071 10072 10073 10074 10073 10073 10073 10072 10072 10073 10073 10075 10076 10078 10080 10082
10097 10097 10090 10084 10076 10078 10070 10064 10063 10063 10060 10056 10052 10052 10051 10051 10052 10053 10049 10048 10048 10048 10052 10052 10056 10057 10057 10056 10057 10057 10059 10059 10059 10060 10060 10060 10060 10061 10062 10062 10064 10066 10068 10071